BAW78J EGLL-LOWW

Flight info

Callsign BAW78J
Flight time 1h 54m
Altitude 37000
Route DCT BPK Q295 BRAIN M197 REDFA L620 TACHA DCT NOMKA DCT OMELO DCT EVIKU DCT BITSI DCT MIKOV DCT
Aircraft A320/M-SDE3FGIJ1KRWXY/SB1

Departure

Time 2026-05-05 18:39
Airport London Heathrow Airport (EGLL)

Arrival

Time 2026-05-05 20:33
Airport Vienna International Airport (LOWW)
Time Latitude Longitude Altitude Speed Heading
2026-05-05 18:03 51.46933 -0.45972 87 ft 0 kts 57°
2026-05-05 18:23 51.46932 -0.45975 87 ft 1 kts 57°
2026-05-05 18:23 51.46924 -0.45995 86 ft 2 kts 57°
2026-05-05 18:23 51.46916 -0.46015 86 ft 2 kts 57°
2026-05-05 18:24 51.46907 -0.46035 85 ft 2 kts 57°
2026-05-05 18:24 51.46899 -0.46055 85 ft 2 kts 57°
2026-05-05 18:24 51.46894 -0.46068 84 ft 0 kts 57°
2026-05-05 18:31 51.46894 -0.46067 84 ft 0 kts 57°
2026-05-05 18:31 51.46894 -0.46063 84 ft 0 kts 91°
2026-05-05 18:32 51.46883 -0.46048 84 ft 4 kts 147°
2026-05-05 18:32 51.46849 -0.46012 84 ft 7 kts 146°
2026-05-05 18:32 51.46794 -0.45983 84 ft 9 kts 179°
2026-05-05 18:32 51.46720 -0.45984 84 ft 11 kts 181°
2026-05-05 18:33 51.46661 -0.46050 84 ft 12 kts 252°
2026-05-05 18:33 51.46659 -0.46191 84 ft 13 kts 271°
2026-05-05 18:33 51.46658 -0.46361 81 ft 16 kts 270°
2026-05-05 18:33 51.46658 -0.46547 80 ft 17 kts 270°
2026-05-05 18:34 51.46656 -0.46758 78 ft 19 kts 270°
2026-05-05 18:34 51.46656 -0.46974 78 ft 19 kts 270°
2026-05-05 18:34 51.46656 -0.47194 78 ft 19 kts 270°
2026-05-05 18:34 51.46655 -0.47413 79 ft 19 kts 270°
2026-05-05 18:35 51.46654 -0.47618 81 ft 18 kts 270°
2026-05-05 18:35 51.46653 -0.47822 81 ft 17 kts 270°
2026-05-05 18:35 51.46652 -0.47978 81 ft 7 kts 270°
2026-05-05 18:35 51.46652 -0.48023 81 ft 3 kts 269°
2026-05-05 18:36 51.46652 -0.48077 81 ft 5 kts 269°
2026-05-05 18:36 51.46650 -0.48160 81 ft 9 kts 268°
2026-05-05 18:36 51.46616 -0.48213 79 ft 2 kts 182°
2026-05-05 18:36 51.46611 -0.48213 79 ft 0 kts 181°
2026-05-05 18:37 51.46600 -0.48214 79 ft 4 kts 181°
2026-05-05 18:37 51.46541 -0.48215 78 ft 11 kts 180°
2026-05-05 18:37 51.46479 -0.48170 78 ft 10 kts 102°
2026-05-05 18:38 51.46479 -0.48141 78 ft 0 kts 91°
2026-05-05 18:38 51.46479 -0.48061 78 ft 28 kts 89°
2026-05-05 18:38 51.46483 -0.47319 78 ft 102 kts 90°
2026-05-05 18:39 51.46489 -0.45833 113 ft 159 kts 89°
2026-05-05 18:39 51.46477 -0.44031 681 ft 166 kts 86°
2026-05-05 18:39 51.46516 -0.42257 1523 ft 160 kts 78°
2026-05-05 18:39 51.46938 -0.40715 2154 ft 156 kts 51°
2026-05-05 18:40 51.47673 -0.39332 2515 ft 171 kts 48°
2026-05-05 18:40 51.48499 -0.37824 2875 ft 188 kts 47°
2026-05-05 18:40 51.49401 -0.36154 3175 ft 211 kts 48°
2026-05-05 18:40 51.50387 -0.34300 3623 ft 229 kts 49°
2026-05-05 18:41 51.51444 -0.32293 4094 ft 247 kts 49°
2026-05-05 18:41 51.52447 -0.29967 4753 ft 258 kts 64°
2026-05-05 18:41 51.53050 -0.27280 5452 ft 263 kts 71°
2026-05-05 18:41 51.53585 -0.24443 5871 ft 266 kts 71°
2026-05-05 18:42 51.54140 -0.21583 6151 ft 271 kts 69°
2026-05-05 18:42 51.55070 -0.19007 6866 ft 273 kts 41°
2026-05-05 18:42 51.56674 -0.17522 7772 ft 270 kts 14°
2026-05-05 18:42 51.58522 -0.17301 8568 ft 272 kts 358°
2026-05-05 18:43 51.60402 -0.17090 9294 ft 277 kts 12°
2026-05-05 18:43 51.62293 -0.16345 10050 ft 281 kts 13°
2026-05-05 18:43 51.64203 -0.15564 10584 ft 291 kts 14°
2026-05-05 18:43 51.66207 -0.14699 10903 ft 309 kts 15°
2026-05-05 18:44 51.68320 -0.13749 11260 ft 323 kts 15°
2026-05-05 18:44 51.70499 -0.12751 11927 ft 329 kts 15°
2026-05-05 18:44 51.72645 -0.11528 12547 ft 334 kts 28°
2026-05-05 18:44 51.74425 -0.09061 13127 ft 340 kts 52°
2026-05-05 18:45 51.75458 -0.05641 13725 ft 346 kts 75°
2026-05-05 18:45 51.75824 -0.01811 14332 ft 349 kts 82°
2026-05-05 18:45 51.76106 0.02060 14906 ft 353 kts 82°
2026-05-05 18:45 51.76401 0.06011 15505 ft 356 kts 82°
2026-05-05 18:46 51.76705 0.09924 16104 ft 358 kts 82°
2026-05-05 18:46 51.77025 0.13896 16643 ft 360 kts 81°
2026-05-05 18:46 51.77354 0.17933 17224 ft 363 kts 81°
2026-05-05 18:46 51.77682 0.21947 17764 ft 365 kts 81°
2026-05-05 18:47 51.78014 0.26020 18285 ft 368 kts 81°
2026-05-05 18:47 51.78348 0.30131 18774 ft 371 kts 81°
2026-05-05 18:47 51.78681 0.34248 19256 ft 374 kts 81°
2026-05-05 18:47 51.79015 0.38419 19731 ft 378 kts 81°
2026-05-05 18:48 51.79352 0.42640 20223 ft 381 kts 82°
2026-05-05 18:48 51.79684 0.46841 20689 ft 384 kts 82°
2026-05-05 18:48 51.80023 0.51146 21156 ft 387 kts 82°
2026-05-05 18:48 51.80362 0.55471 21615 ft 390 kts 82°
2026-05-05 18:49 51.80698 0.59762 22055 ft 392 kts 82°
2026-05-05 18:49 51.81084 0.64165 22486 ft 395 kts 79°
2026-05-05 18:49 51.81630 0.68497 22902 ft 398 kts 76°
2026-05-05 18:49 51.82283 0.72806 23301 ft 400 kts 76°
2026-05-05 18:50 51.82967 0.77208 23722 ft 403 kts 76°
2026-05-05 18:50 51.83656 0.81565 24138 ft 405 kts 74°
2026-05-05 18:50 51.84434 0.85904 24541 ft 407 kts 73°
2026-05-05 18:50 51.85236 0.90270 24937 ft 409 kts 73°
2026-05-05 18:51 51.86049 0.94699 25333 ft 411 kts 73°
2026-05-05 18:51 51.86860 0.99134 25717 ft 413 kts 73°
2026-05-05 18:51 51.87668 1.03571 26087 ft 416 kts 74°
2026-05-05 18:51 51.88487 1.08093 26449 ft 418 kts 74°
2026-05-05 18:52 51.89300 1.12597 26788 ft 421 kts 74°
2026-05-05 18:52 51.90116 1.17132 27130 ft 423 kts 74°
2026-05-05 18:52 51.90933 1.21688 27465 ft 425 kts 75°
2026-05-05 18:52 51.91754 1.26273 27798 ft 428 kts 75°
2026-05-05 18:53 51.92576 1.30879 28107 ft 430 kts 75°
2026-05-05 18:53 51.93413 1.35584 28419 ft 433 kts 75°
2026-05-05 18:53 51.94242 1.40257 28722 ft 435 kts 75°
2026-05-05 18:53 51.95071 1.44938 29013 ft 437 kts 75°
2026-05-05 18:54 51.95905 1.49660 29303 ft 439 kts 75°
2026-05-05 18:54 51.96737 1.54398 29596 ft 441 kts 75°
2026-05-05 18:54 51.97579 1.59194 29888 ft 443 kts 76°
2026-05-05 18:54 51.98422 1.64013 30184 ft 445 kts 76°
2026-05-05 18:55 51.99257 1.68803 30450 ft 446 kts 77°
2026-05-05 18:55 52.00047 1.73659 30704 ft 448 kts 78°
2026-05-05 18:55 52.00814 1.78596 30972 ft 450 kts 78°
2026-05-05 18:55 52.01564 1.83482 31296 ft 450 kts 79°
2026-05-05 18:56 52.02319 1.88408 31683 ft 448 kts 78°
2026-05-05 18:56 52.03068 1.93285 32038 ft 447 kts 78°
2026-05-05 18:56 52.03816 1.98161 32373 ft 447 kts 78°
2026-05-05 18:56 52.04568 2.03069 32675 ft 447 kts 78°
2026-05-05 18:57 52.05309 2.07917 33003 ft 447 kts 78°
2026-05-05 18:57 52.06049 2.12771 33341 ft 446 kts 78°
2026-05-05 18:57 52.06797 2.17688 33667 ft 445 kts 78°
2026-05-05 18:57 52.07531 2.22527 33996 ft 444 kts 78°
2026-05-05 18:58 52.08260 2.27353 34308 ft 443 kts 78°
2026-05-05 18:58 52.08987 2.32184 34605 ft 443 kts 78°
2026-05-05 18:58 52.09716 2.37044 34896 ft 442 kts 78°
2026-05-05 18:58 52.10437 2.41869 35169 ft 442 kts 78°
2026-05-05 18:59 52.11165 2.46732 35318 ft 443 kts 78°
2026-05-05 18:59 52.11986 2.51524 35444 ft 445 kts 75°
2026-05-05 18:59 52.12894 2.56321 35556 ft 446 kts 74°
2026-05-05 18:59 52.13822 2.61165 35658 ft 447 kts 75°
2026-05-05 19:00 52.14740 2.65957 35765 ft 447 kts 75°
2026-05-05 19:00 52.15657 2.70773 35874 ft 448 kts 75°
2026-05-05 19:00 52.17484 2.80426 36065 ft 450 kts 75°
2026-05-05 19:01 52.19311 2.90150 36252 ft 452 kts 75°
2026-05-05 19:01 52.21144 2.99967 36442 ft 453 kts 75°
2026-05-05 19:02 52.22957 3.09726 36649 ft 454 kts 76°
2026-05-05 19:02 52.23751 3.14702 36765 ft 453 kts 79°
2026-05-05 19:02 52.24321 3.19705 36886 ft 453 kts 84°
2026-05-05 19:03 52.24789 3.29933 36919 ft 452 kts 92°
2026-05-05 19:03 52.24356 3.40070 36922 ft 450 kts 99°
2026-05-05 19:04 52.23528 3.50158 36922 ft 450 kts 100°
2026-05-05 19:04 52.22691 3.60215 36917 ft 450 kts 100°
2026-05-05 19:05 52.21855 3.70263 36915 ft 449 kts 101°
2026-05-05 19:05 52.21012 3.80346 36912 ft 449 kts 101°
2026-05-05 19:06 52.20165 3.90379 36915 ft 448 kts 101°
2026-05-05 19:06 52.19312 4.00385 36911 ft 448 kts 101°
2026-05-05 19:07 52.18456 4.10365 36914 ft 448 kts 101°
2026-05-05 19:07 52.17584 4.20396 36910 ft 448 kts 101°
2026-05-05 19:08 52.16708 4.30375 36911 ft 448 kts 101°
2026-05-05 19:08 52.15822 4.40372 36903 ft 448 kts 101°
2026-05-05 19:09 52.14927 4.50371 36903 ft 447 kts 101°
2026-05-05 19:09 52.14026 4.60334 36899 ft 448 kts 101°
2026-05-05 19:10 52.13114 4.70307 36901 ft 448 kts 102°
2026-05-05 19:10 52.12196 4.80274 36900 ft 447 kts 102°
2026-05-05 19:11 52.11271 4.90231 36884 ft 447 kts 102°
2026-05-05 19:11 52.10337 5.00185 36891 ft 447 kts 102°
2026-05-05 19:12 52.09396 5.10120 36888 ft 446 kts 102°
2026-05-05 19:12 52.08443 5.20073 36880 ft 446 kts 102°
2026-05-05 19:13 52.07487 5.29975 36875 ft 446 kts 102°
2026-05-05 19:13 52.06524 5.39855 36880 ft 447 kts 102°
2026-05-05 19:14 52.05545 5.49817 36875 ft 446 kts 102°
2026-05-05 19:14 52.04562 5.59718 36872 ft 446 kts 102°
2026-05-05 19:15 52.03575 5.69589 36871 ft 445 kts 103°
2026-05-05 19:15 52.02580 5.79439 36867 ft 444 kts 103°
2026-05-05 19:16 52.01573 5.89323 36862 ft 444 kts 103°
2026-05-05 19:16 52.00566 5.99138 36860 ft 442 kts 103°
2026-05-05 19:17 51.99549 6.08947 36871 ft 443 kts 103°
2026-05-05 19:17 51.98520 6.18782 36870 ft 443 kts 103°
2026-05-05 19:18 51.97488 6.28579 36870 ft 443 kts 103°
2026-05-05 19:18 51.96447 6.38368 36861 ft 443 kts 103°
2026-05-05 19:19 51.95400 6.48140 36868 ft 442 kts 103°
2026-05-05 19:19 51.94347 6.57911 36857 ft 441 kts 103°
2026-05-05 19:20 51.93281 6.67690 36848 ft 441 kts 104°
2026-05-05 19:20 51.92214 6.77414 36838 ft 441 kts 104°
2026-05-05 19:21 51.91138 6.87144 36836 ft 441 kts 104°
2026-05-05 19:21 51.90048 6.96914 36833 ft 441 kts 104°
2026-05-05 19:22 51.88957 7.06628 36830 ft 441 kts 104°
2026-05-05 19:22 51.87853 7.16379 36832 ft 441 kts 104°
2026-05-05 19:23 51.86747 7.26059 36825 ft 441 kts 104°
2026-05-05 19:23 51.85630 7.35769 36827 ft 441 kts 104°
2026-05-05 19:24 51.84501 7.45507 36822 ft 440 kts 104°
2026-05-05 19:24 51.83370 7.55178 36832 ft 440 kts 104°
2026-05-05 19:25 51.82238 7.64813 36837 ft 439 kts 104°
2026-05-05 19:25 51.81090 7.74493 36837 ft 440 kts 105°
2026-05-05 19:26 51.79940 7.84115 36823 ft 440 kts 105°
2026-05-05 19:26 51.78778 7.93780 36825 ft 440 kts 105°
2026-05-05 19:27 51.77607 8.03439 36829 ft 440 kts 105°
2026-05-05 19:27 51.76427 8.13114 36813 ft 439 kts 105°
2026-05-05 19:28 51.75246 8.22706 36816 ft 439 kts 105°
2026-05-05 19:28 51.74051 8.32361 36807 ft 439 kts 105°
2026-05-05 19:29 51.72856 8.41962 36810 ft 438 kts 105°
2026-05-05 19:29 51.71645 8.51604 36805 ft 439 kts 106°
2026-05-05 19:30 51.70437 8.61149 36804 ft 439 kts 106°
2026-05-05 19:30 51.69211 8.70775 36812 ft 439 kts 107°
2026-05-05 19:31 51.67979 8.80394 36816 ft 438 kts 107°
2026-05-05 19:31 51.66748 8.89918 36807 ft 438 kts 107°
2026-05-05 19:32 51.65503 8.99480 36800 ft 437 kts 107°
2026-05-05 19:32 51.64247 9.09080 36802 ft 438 kts 107°
2026-05-05 19:33 51.62995 9.18583 36797 ft 438 kts 107°
2026-05-05 19:33 51.61727 9.28132 36796 ft 438 kts 107°
2026-05-05 19:34 51.60452 9.37676 36796 ft 438 kts 107°
2026-05-05 19:35 51.58524 9.51990 36792 ft 438 kts 107°
2026-05-05 19:35 51.57227 9.61539 36795 ft 440 kts 107°
2026-05-05 19:36 51.55916 9.71124 36793 ft 439 kts 108°
2026-05-05 19:36 51.54601 9.80684 36792 ft 439 kts 108°
2026-05-05 19:37 51.53288 9.90165 36792 ft 439 kts 108°
2026-05-05 19:37 51.51960 9.99683 36792 ft 439 kts 107°
2026-05-05 19:38 51.50618 10.09264 36794 ft 439 kts 108°
2026-05-05 19:38 51.49283 10.18727 36793 ft 440 kts 108°
2026-05-05 19:39 51.47924 10.28288 36793 ft 441 kts 108°
2026-05-05 19:39 51.46556 10.37855 36792 ft 440 kts 108°
2026-05-05 19:40 51.45193 10.47330 36788 ft 442 kts 108°
2026-05-05 19:40 51.43749 10.56896 36780 ft 441 kts 109°
2026-05-05 19:41 51.42236 10.66385 36785 ft 441 kts 110°
2026-05-05 19:41 51.40716 10.75870 36780 ft 442 kts 109°
2026-05-05 19:42 51.39194 10.85351 36777 ft 441 kts 109°
2026-05-05 19:42 51.37676 10.94770 36787 ft 442 kts 109°
2026-05-05 19:43 51.36131 11.04314 36788 ft 443 kts 109°
2026-05-05 19:43 51.34577 11.13850 36788 ft 443 kts 109°
2026-05-05 19:44 51.33028 11.23297 36805 ft 443 kts 109°
2026-05-05 19:44 51.31469 11.32770 36801 ft 443 kts 109°
2026-05-05 19:45 51.29897 11.42254 36792 ft 442 kts 109°
2026-05-05 19:45 51.28318 11.51734 36785 ft 442 kts 109°
2026-05-05 19:46 51.26737 11.61167 36780 ft 442 kts 109°
2026-05-05 19:46 51.25149 11.70600 36776 ft 441 kts 110°
2026-05-05 19:47 51.23561 11.79983 36772 ft 441 kts 110°
2026-05-05 19:47 51.21963 11.89359 36771 ft 441 kts 110°
2026-05-05 19:48 51.20347 11.98800 36766 ft 441 kts 110°
2026-05-05 19:48 51.18734 12.08169 36760 ft 441 kts 110°
2026-05-05 19:49 51.17105 12.17584 36761 ft 441 kts 110°
2026-05-05 19:49 51.15470 12.26988 36762 ft 442 kts 110°
2026-05-05 19:50 51.13839 12.36314 36763 ft 441 kts 110°
2026-05-05 19:50 51.12187 12.45708 36762 ft 442 kts 110°
2026-05-05 19:51 51.10535 12.55053 36764 ft 441 kts 110°
2026-05-05 19:51 51.08870 12.64432 36766 ft 442 kts 110°
2026-05-05 19:52 51.07191 12.73836 36761 ft 443 kts 111°
2026-05-05 19:52 51.05511 12.83189 36759 ft 443 kts 111°
2026-05-05 19:53 51.03823 12.92546 36754 ft 443 kts 110°
2026-05-05 19:53 51.02124 13.01918 36760 ft 443 kts 111°
2026-05-05 19:54 51.00414 13.11299 36760 ft 443 kts 111°
2026-05-05 19:54 50.98696 13.20668 36757 ft 444 kts 110°
2026-05-05 19:55 50.96970 13.30047 36757 ft 445 kts 111°
2026-05-05 19:55 50.95231 13.39442 36750 ft 445 kts 110°
2026-05-05 19:56 50.93495 13.48788 36746 ft 446 kts 110°
2026-05-05 19:56 50.91737 13.58184 36740 ft 446 kts 110°
2026-05-05 19:57 50.89979 13.67541 36751 ft 447 kts 111°
2026-05-05 19:57 50.88205 13.76930 36753 ft 446 kts 111°
2026-05-05 19:58 50.86413 13.86355 36742 ft 446 kts 112°
2026-05-05 19:58 50.84066 13.95307 36732 ft 441 kts 122°
2026-05-05 19:59 50.80787 14.03368 36741 ft 436 kts 132°
2026-05-05 19:59 50.76694 14.10337 36740 ft 433 kts 141°
2026-05-05 20:00 50.72273 14.16707 36737 ft 434 kts 141°
2026-05-05 20:00 50.67806 14.23113 36731 ft 435 kts 141°
2026-05-05 20:01 50.63329 14.29533 36731 ft 436 kts 141°
2026-05-05 20:01 50.58874 14.35917 36733 ft 436 kts 141°
2026-05-05 20:02 50.54387 14.42330 36731 ft 437 kts 141°
2026-05-05 20:02 50.49905 14.48715 36733 ft 437 kts 141°
2026-05-05 20:03 50.45440 14.55129 36735 ft 439 kts 139°
2026-05-05 20:03 50.41048 14.61801 36736 ft 440 kts 138°
2026-05-05 20:04 50.36660 14.68445 36731 ft 442 kts 139°
2026-05-05 20:04 50.32243 14.75117 36729 ft 443 kts 139°
2026-05-05 20:05 50.27821 14.81788 36727 ft 443 kts 139°
2026-05-05 20:05 50.23382 14.88464 36722 ft 444 kts 139°
2026-05-05 20:06 50.18948 14.95116 36725 ft 444 kts 138°
2026-05-05 20:06 50.14508 15.01762 36724 ft 444 kts 139°
2026-05-05 20:07 50.10061 15.08394 36720 ft 445 kts 138°
2026-05-05 20:07 50.05607 15.15021 36716 ft 446 kts 138°
2026-05-05 20:08 50.01116 15.21685 36717 ft 447 kts 138°
2026-05-05 20:08 49.96648 15.28296 36714 ft 446 kts 138°
2026-05-05 20:09 49.92151 15.34930 36718 ft 446 kts 138°
2026-05-05 20:09 49.87683 15.41506 36718 ft 445 kts 138°
2026-05-05 20:10 49.83199 15.48079 36726 ft 446 kts 138°
2026-05-05 20:10 49.78700 15.54666 36727 ft 446 kts 138°
2026-05-05 20:11 49.74225 15.61199 36734 ft 447 kts 138°
2026-05-05 20:11 49.69679 15.67815 36311 ft 446 kts 139°
2026-05-05 20:11 49.67458 15.71037 35775 ft 444 kts 139°
2026-05-05 20:12 49.65197 15.74313 35171 ft 444 kts 138°
2026-05-05 20:12 49.62989 15.77511 34519 ft 444 kts 138°
2026-05-05 20:12 49.60725 15.80789 33768 ft 444 kts 138°
2026-05-05 20:12 49.58493 15.84019 33036 ft 443 kts 139°
2026-05-05 20:13 49.56263 15.87240 32318 ft 443 kts 139°
2026-05-05 20:13 49.54024 15.90471 31582 ft 442 kts 139°
2026-05-05 20:13 49.51783 15.93698 30833 ft 443 kts 139°
2026-05-05 20:13 49.49546 15.96913 30113 ft 442 kts 139°
2026-05-05 20:14 49.47331 16.00092 29642 ft 438 kts 139°
2026-05-05 20:14 49.45119 16.03265 29168 ft 435 kts 139°
2026-05-05 20:14 49.42915 16.06416 28679 ft 431 kts 139°
2026-05-05 20:14 49.40739 16.09528 28184 ft 428 kts 139°
2026-05-05 20:15 49.38568 16.12629 27682 ft 424 kts 139°
2026-05-05 20:15 49.36426 16.15685 27206 ft 420 kts 139°
2026-05-05 20:15 49.34293 16.18722 26730 ft 416 kts 140°
2026-05-05 20:15 49.32052 16.21349 26221 ft 408 kts 154°
2026-05-05 20:16 49.29412 16.22738 25743 ft 398 kts 173°
2026-05-05 20:16 49.26677 16.22800 25243 ft 391 kts 188°
2026-05-05 20:16 49.24014 16.22183 24762 ft 387 kts 190°
2026-05-05 20:16 49.21379 16.21550 24274 ft 383 kts 190°
2026-05-05 20:17 49.18764 16.20931 23794 ft 380 kts 189°
2026-05-05 20:17 49.16189 16.20329 23320 ft 377 kts 189°
2026-05-05 20:17 49.13605 16.19730 22848 ft 374 kts 189°
2026-05-05 20:17 49.11028 16.19137 22364 ft 371 kts 189°
2026-05-05 20:18 49.08512 16.18562 21912 ft 368 kts 189°
2026-05-05 20:18 49.05984 16.17984 21425 ft 366 kts 189°
2026-05-05 20:18 49.03482 16.17414 20947 ft 364 kts 189°
2026-05-05 20:18 49.01011 16.16853 20496 ft 362 kts 189°
2026-05-05 20:19 48.98508 16.16284 20016 ft 361 kts 189°
2026-05-05 20:19 48.96039 16.15724 19533 ft 359 kts 189°
2026-05-05 20:19 48.93587 16.15168 19067 ft 357 kts 189°
2026-05-05 20:19 48.91156 16.14619 18597 ft 355 kts 189°
2026-05-05 20:20 48.88710 16.14066 18122 ft 354 kts 189°
2026-05-05 20:20 48.86267 16.13515 17632 ft 353 kts 189°
2026-05-05 20:20 48.83858 16.12972 17157 ft 351 kts 189°
2026-05-05 20:20 48.81461 16.12432 16667 ft 350 kts 188°
2026-05-05 20:21 48.79064 16.11893 16181 ft 349 kts 188°
2026-05-05 20:21 48.76658 16.11352 15691 ft 348 kts 189°
2026-05-05 20:21 48.74280 16.10819 15196 ft 347 kts 189°
2026-05-05 20:21 48.71908 16.10287 14717 ft 346 kts 189°
2026-05-05 20:22 48.69528 16.09752 14239 ft 344 kts 189°
2026-05-05 20:22 48.67189 16.09227 13771 ft 343 kts 188°
2026-05-05 20:22 48.64840 16.08701 13298 ft 342 kts 188°
2026-05-05 20:22 48.62493 16.08177 12814 ft 341 kts 188°
2026-05-05 20:23 48.60171 16.07658 12341 ft 340 kts 189°
2026-05-05 20:23 48.57834 16.07137 11859 ft 339 kts 189°
2026-05-05 20:23 48.55506 16.06618 11384 ft 339 kts 189°
2026-05-05 20:23 48.53177 16.06098 10905 ft 338 kts 189°
2026-05-05 20:24 48.50871 16.05584 10420 ft 338 kts 189°
2026-05-05 20:24 48.48564 16.05068 10084 ft 333 kts 189°
2026-05-05 20:24 48.46309 16.04564 9931 ft 321 kts 188°
2026-05-05 20:24 48.44127 16.04079 9784 ft 311 kts 188°
2026-05-05 20:25 48.42033 16.03617 9554 ft 305 kts 188°
2026-05-05 20:25 48.39926 16.03156 9274 ft 300 kts 189°
2026-05-05 20:25 48.37917 16.02496 9000 ft 295 kts 198°
2026-05-05 20:25 48.36023 16.01376 8730 ft 290 kts 206°
2026-05-05 20:26 48.34224 16.00086 8469 ft 286 kts 207°
2026-05-05 20:26 48.32366 15.99123 8169 ft 285 kts 186°
2026-05-05 20:26 48.30433 15.99660 7850 ft 287 kts 153°
2026-05-05 20:26 48.28950 16.01610 7391 ft 287 kts 124°
2026-05-05 20:27 48.28071 16.04266 6788 ft 290 kts 116°
2026-05-05 20:27 48.27250 16.07055 6208 ft 293 kts 117°
2026-05-05 20:27 48.26402 16.09822 5772 ft 293 kts 118°
2026-05-05 20:27 48.25544 16.12565 5401 ft 293 kts 118°
2026-05-05 20:28 48.24702 16.15368 5084 ft 291 kts 117°
2026-05-05 20:28 48.23865 16.18078 4980 ft 281 kts 119°
2026-05-05 20:28 48.23045 16.20637 4972 ft 267 kts 120°
2026-05-05 20:28 48.22255 16.23050 4908 ft 256 kts 120°
2026-05-05 20:29 48.21464 16.25434 4664 ft 255 kts 121°
2026-05-05 20:29 48.20676 16.27800 4313 ft 252 kts 121°
2026-05-05 20:29 48.19909 16.30114 3970 ft 245 kts 121°
2026-05-05 20:29 48.19163 16.32377 3642 ft 236 kts 122°
2026-05-05 20:30 48.18473 16.34485 3317 ft 218 kts 123°
2026-05-05 20:30 48.17838 16.36427 3106 ft 201 kts 123°
2026-05-05 20:30 48.17236 16.38252 2815 ft 193 kts 123°
2026-05-05 20:30 48.16657 16.40006 2569 ft 183 kts 123°
2026-05-05 20:31 48.16115 16.41657 2309 ft 170 kts 124°
2026-05-05 20:31 48.15614 16.43189 2066 ft 158 kts 125°
2026-05-05 20:31 48.15151 16.44603 1842 ft 146 kts 126°
2026-05-05 20:31 48.14702 16.45948 1672 ft 144 kts 126°
2026-05-05 20:32 48.14243 16.47268 1504 ft 143 kts 125°
2026-05-05 20:32 48.13806 16.48598 1300 ft 141 kts 123°
2026-05-05 20:32 48.13383 16.49898 1107 ft 139 kts 121°
2026-05-05 20:32 48.12974 16.51200 936 ft 136 kts 121°
2026-05-05 20:33 48.12572 16.52448 753 ft 133 kts 121°
2026-05-05 20:33 48.12170 16.53677 584 ft 129 kts 120°
2026-05-05 20:33 48.11839 16.54695 580 ft 71 kts 116°
2026-05-05 20:33 48.11682 16.55178 583 ft 44 kts 116°
2026-05-05 20:34 48.11558 16.55565 582 ft 38 kts 115°
2026-05-05 20:34 48.11501 16.55825 585 ft 19 kts 94°
2026-05-05 20:34 48.11503 16.56009 586 ft 4 kts 83°
2026-05-05 20:34 48.11503 16.56011 586 ft 0 kts 83°
2026-05-05 20:35 48.11506 16.56041 586 ft 2 kts 83°
2026-05-05 20:35 48.11510 16.56086 587 ft 8 kts 73°
2026-05-05 20:35 48.11552 16.56146 589 ft 8 kts 26°
2026-05-05 20:35 48.11611 16.56187 589 ft 9 kts 19°
2026-05-05 20:36 48.11672 16.56155 589 ft 8 kts 320°
2026-05-05 20:36 48.11710 16.56097 588 ft 3 kts 339°
2026-05-05 20:36 48.11734 16.56102 588 ft 4 kts 19°
2026-05-05 20:36 48.11762 16.56121 588 ft 3 kts 26°
2026-05-05 20:37 48.11769 16.56126 588 ft 0 kts 26°